Weather History for KGSH - March, 2014

Change the Weather History Date:

Monday, March 10, 2014

  Actual Average Record
Temperature  
Mean Temperature 42 °F -  
Max Temperature 50 °F 45 °F 65 °F (1986)
Min Temperature 37 °F 26 °F 5 °F (1984)
Degree Days  
Heating Degree Days 22    
Moisture  
Dew Point 34 °F    
Average Humidity 74    
Maximum Humidity 89    
Minimum Humidity 61    
Precipitation  
Precipitation 0.00 in - - ()
Sea Level Pressure  
Sea Level Pressure 29.74 in    
Wind  
Wind Speed 14 mph (SW)    
Max Wind Speed 18 mph    
Max Gust Speed 25 mph    
Visibility 7 miles    
Events      
Averages and records for this station are not official NWS values.
T = Trace of Precipitation, MM = Missing Value Source: NWS Daily Summary

Daily Weather History Graph

Daily Weather History Graph

Search for Another Location

Airport or City:

Trip Planner

Search our weather history database for the weather conditions in past years. The results will help you decide how hot, cold, wet, or windy it might be!

Date:

Astronomy

Mar. 10, 2014 Rise Set
Actual Time 8:03 AM EDT 7:44 PM EDT
Civil Twilight 7:35 AM EDT 8:11 PM EDT
Nautical Twilight 7:03 AM EDT 8:43 PM EDT
Astronomical Twilight 6:31 AM EDT 9:16 PM EDT
Moon 2:24 PM EDT (3/10) 4:17 AM EDT (3/10)
Length of Visible Light 12h 36m
Length of Day
11h 40m
Waxing Gibbous, 70% of the Moon is Illuminated
Mar 10
Waxing Gibbous
Mar 16
Full
Mar 23
Last Quarter
Mar 30
New
Apr 7
First Quarter

Hourly Weather History & Observations

Time (EDT) Temp. Windchill Dew Point Humidity Pressure Visibility Wind Dir Wind Speed Gust Speed Precip Events Conditions
12:53 AM 37.0 °F 27.0 °F 28.9 °F 73% 29.88 in 6.0 mi SW 18.4 mph - N/A   Haze
1:53 AM 37.0 °F 28.1 °F 30.0 °F 76% 29.86 in 6.0 mi SSW 15.0 mph - N/A   Haze
2:53 AM 37.0 °F 28.9 °F 30.0 °F 76% 29.83 in 5.0 mi SW 12.7 mph - N/A   Haze
3:53 AM 37.9 °F 28.9 °F 30.0 °F 73% 29.79 in 5.0 mi SW 16.1 mph - N/A   Haze
4:53 AM 37.9 °F 29.2 °F 30.9 °F 76% 29.78 in 6.0 mi SW 15.0 mph - N/A   Haze
5:53 AM 39.0 °F 31.0 °F 30.9 °F 73% 29.76 in 7.0 mi SW 13.8 mph - N/A   Overcast
6:53 AM 39.9 °F 32.9 °F 30.9 °F 70% 29.78 in 8.0 mi SW 11.5 mph - N/A   Partly Cloudy
7:53 AM 37.9 °F 30.5 °F 30.9 °F 76% 29.75 in 7.0 mi SW 11.5 mph - N/A   Clear
8:53 AM 37.9 °F 31.5 °F 32.0 °F 79% 29.76 in 6.0 mi SW 9.2 mph - N/A   Haze
9:53 AM 39.0 °F 31.4 °F 32.0 °F 76% 29.76 in 7.0 mi SW 12.7 mph - N/A   Mostly Cloudy
10:53 AM 39.9 °F 32.5 °F 32.0 °F 73% 29.76 in 7.0 mi SW 12.7 mph - N/A   Scattered Clouds
11:53 AM 42.1 °F 34.2 °F 33.1 °F 70% 29.75 in 8.0 mi SW 16.1 mph - N/A   Clear
12:53 PM 43.0 °F 35.7 °F 33.1 °F 68% 29.74 in 10.0 mi SW 15.0 mph - N/A   Clear
1:53 PM 45.0 °F 38.2 °F 34.0 °F 65% 29.71 in 10.0 mi SW 15.0 mph 24.2 mph N/A   Clear
2:53 PM 46.9 °F - 35.1 °F 63% 29.69 in 10.0 mi SW 15.0 mph 23.0 mph N/A   Clear
3:53 PM 48.9 °F - 36.0 °F 61% 29.67 in 10.0 mi SW 18.4 mph 25.3 mph N/A   Clear
4:53 PM 48.9 °F - 37.9 °F 66% 29.67 in 9.0 mi SW 17.3 mph 23.0 mph N/A   Clear
5:53 PM 48.9 °F - 39.0 °F 69% 29.66 in 8.0 mi SW 15.0 mph - N/A   Clear
6:53 PM 46.9 °F - 39.0 °F 74% 29.67 in 7.0 mi SW 12.7 mph - N/A   Clear
7:53 PM 46.0 °F 41.0 °F 39.0 °F 76% 29.67 in 6.0 mi SW 10.4 mph - N/A   Haze
8:53 PM 45.0 °F 40.1 °F 39.0 °F 80% 29.70 in 6.0 mi SW 9.2 mph - N/A   Haze
9:53 PM 43.0 °F 39.5 °F 39.0 °F 86% 29.71 in 6.0 mi SW 5.8 mph - N/A   Clear
10:53 PM 42.1 °F 37.7 °F 37.9 °F 85% 29.70 in 4.0 mi SSW 6.9 mph - N/A   Clear
11:53 PM 41.0 °F 39.0 °F 37.9 °F 89% 29.70 in 4.0 mi SSW 3.5 mph - N/A   Clear